This is the latest recevied weather packets stored in our database for station/object N5RPG. If no packets are shown the sender has not sent any weather packets the latest 1 day(s).
| Time | Temp. | Humidity | Pressure | Rain* | Wind** | Luminosity | Snow |
|---|---|---|---|---|---|---|---|
| 1778092991 | 18.33° C | 86% | 1013.2 hPa | 0 mm | - | 74 W/m² | - |
| 1778092688 | 18.89° C | 85% | 1013.7 hPa | 0 mm | - | 115 W/m² | - |
| 1778090262 | 18.89° C | 82% | 1013.6 hPa | 0 mm | - | 109 W/m² | - |
| 1778089959 | 18.89° C | 83% | 1013.7 hPa | 0 mm | - | 283 W/m² | - |
| 1778087536 | 17.78° C | 83% | 1015.2 hPa | 0 mm | - | 254 W/m² | - |
| 1778086325 | 18.33° C | 83% | 1015.3 hPa | 0 mm | - | 149 W/m² | - |
| 1778084807 | 18.33° C | 82% | 1014.6 hPa | 0 mm | - | 179 W/m² | - |
| 1778083596 | 18.33° C | 82% | 1014.1 hPa | 0 mm | - | 193 W/m² | - |
| 1778081247 | 18.89° C | 82% | 1013.8 hPa | 0 mm | - | 171 W/m² | - |
| 1778080036 | 19.44° C | 82% | 1013.1 hPa | 0 mm | - | 226 W/m² | - |
| 1778079430 | 18.89° C | 83% | 1013 hPa | 0 mm | - | 95 W/m² | - |
| 1778078521 | 18.33° C | 85% | 1012.7 hPa | 0 mm | - | 224 W/m² | - |
| 1778076708 | 18.33° C | 87% | 1012.6 hPa | 0 mm | - | 103 W/m² | - |
| 1778075799 | 18.33° C | 87% | 1012.5 hPa | 0 mm | - | 104 W/m² | - |
| 1778075192 | 18.89° C | 87% | 1012.5 hPa | 0 mm | - | 103 W/m² | - |
| 1778074585 | 18.89° C | 86% | 1012.5 hPa | 0 mm | - | 64 W/m² | - |
| 1778074282 | 18.89° C | 87% | 1012.4 hPa | 0 mm | - | 44 W/m² | - |
| 1778071860 | 19.44° C | 88% | 1011.8 hPa | 0 mm | - | 11 W/m² | - |
| 1778071255 | 20° C | 88% | 1011.7 hPa | 0 mm | - | 23 W/m² | - |
| 1778070651 | 21.11° C | 87% | 1011.5 hPa | 0 mm | - | 14 W/m² | - |
| 1778070347 | 21.67° C | 87% | 1011.4 hPa | 0 mm | - | 11 W/m² | - |
| 1778069137 | 23.33° C | 88% | 1011 hPa | 0 mm | - | 3 W/m² | - |
| 1778068834 | 23.89° C | 90% | 1010.9 hPa | 0 mm | - | 8 W/m² | - |
| 1778068532 | 23.89° C | 90% | 1010.7 hPa | 0 mm | - | 5 W/m² | - |
| 1778067927 | 23.89° C | 90% | 1010.5 hPa | 0 mm | - | 2 W/m² | - |
* Rain latest hour (hover to see other rain measurements)
** Current wind speed in m/s (hover to see current wind gust speed)